Weather in Ivano-franc

Ukraine / Lviv District     49°55′13″N   23°44′05″E
temp.,
°C
wind,
m/s
gust,
m/s
humid.,
%
clouds,
%
prec.,
mm/h
press.,
hPa
HPBL,
m
18 may, tue
tue1800:00+11e228621 0.0 100229
03:00+10e118685 0.0 100210
06:00+9nw119199 0.0 100212
09:00+13nw2377100 0.0 1002408
12:00+16w447487 0.8 1003895
15:00+15wnw6880100 3.1 10031072
18:00+12wnw81291100 1.6 1004866
21:00+12wnw71387100 2.6 1006869
19 may, wed
wed1900:00+11wnw71391100 0.1 1007759
03:00+10wnw61390100 0.1 1008731
06:00+9wnw7139295 0.0 1009660
09:00+11wnw61284100 0.0 1010707
12:00+13wnw6871100 0.1 10101178
15:00+14nw4669100 0.4 10101190
18:00+16nnw565978 0.2 10101395
21:00+11n23834 0.3 101137
20 may, thu
thu2000:00+8nnw22915 0.0 101220
03:00+7n2295100 0.0 101133
06:00+7n2697100 0.0 1011122
09:00+11n4683100 0.0 1012491
12:00+13n578098 1.2 10111055
15:00+16n685987 1.5 10111725
18:00+14n6966100 0.1 10121476
21:00+12n51170100 0.1 1014650
21 may, fri
fri2100:00+9n41280100 0.0 1015401
03:00+8n4118696 0.0 1017355
06:00+7n31091100 0.0 1018300
09:00+10n587493 0.0 1019571
12:00+14nne555678 0.0 10191398
15:00+15n4455100 0.1 10191507
18:00+15ne235544 0.0 10181141
21:00+10e11706 0.0 101912
22 may, sat
sat2200:00+8sse22744 0.0 101914
03:00+7sse33875 0.0 101850
06:00+6sse349040 0.0 101872
09:00+13sse476652 0.0 1017445
12:00+17s56526 0.0 10161142
15:00+19s45445 0.0 10141398
18:00+20s354862 0.0 10131670
21:00+14s3884100 0.1 1014135